[[[{"header":{"parameterUnit":"kt","parameterCategory":2,"dx":1,"dy":1,"la1":30.253999710083008,"la2":30.299108505249023,"lo1":-89.0895004272461,"lo2":-89.04439544677734,"nx":28,"ny":28,"refTime":"2022-09-28T21:00:00:Z","depth":0,"parameterNumber":1,"parameterNumberName":"U-component_of_WINDS"},"data":[-7.0802,-7.0966,-7.0905,-7.1064,-7.1036,-7.1135,-7.1151,-7.1165,-7.1162,-7.1274,-7.1328,-7.1285,-7.1259,-7.131,-7.1367,-7.1347,-7.1377,-7.1478,-7.1438,-7.1036,-7.0977,-7.092,-7.0878,-7.1485,-7.1485,-7.1864,-7.1868,-7.1871,-7.0511,-7.0484,-7.055,-7.0573,-7.0629,-7.0494,-7.0502,-7.0559,-7.0652,-7.0649,-7.0699,-7.0793,-7.0861,-7.0799,-7.0855,-7.0932,-7.0874,-7.0952,-7.0948,-7.0946,-7.0513,-7.0468,-7.0998,-7.0998,-7.0998,-7.0998,-7.0998,-7.0997,-6.9964,-7.0065,-7.0042,-7.0113,-7.0108,-7.0124,-7.021,-7.0153,-7.0218,-7.0268,-7.0182,-7.0288,-7.0274,-7.0312,-7.031,-7.0391,-7.0294,-7.0362,-7.038,-7.04,-7.0431,-6.9897,-7.0397,-7.0395,-7.0394,-7.0392,-7.0391,0,-6.9546,-6.9487,-6.9546,-6.9588,-6.9636,-6.9663,-6.9678,-6.9729,-6.9587,-6.9647,-6.973,-6.9767,-6.9842,-6.9915,-6.9953,-6.9937,-6.9808,-6.9787,-6.9834,-6.988,-6.9915,-6.9902,-6.9202,-6.9774,-6.9769,-6.9765,-6.9762,-6.9759,-6.8993,-6.9117,-6.9064,-6.9114,-6.9106,-6.919,-6.9227,-6.9091,-6.9138,-6.9137,-6.9234,-6.9302,-6.9352,-6.9496,-6.9432,-6.9489,-6.9428,-6.9653,-6.9436,-6.9473,-6.9436,-6.9432,-6.9444,-6.9701,-6.9708,-6.9714,-6.9719,0,-6.8689,-6.8587,-6.876,-6.8695,-6.8682,-6.8821,-6.8766,-6.8861,-6.8795,-6.8919,-6.894,-6.884,-6.8924,-6.8821,-6.8898,-6.8843,-6.9073,-6.9009,-6.9075,-6.9059,-6.9254,-6.9239,-6.9895,-6.9975,-6.934,-6.9346,-6.9351,0,-6.818,-6.8349,-6.8188,-6.8294,-6.8476,-6.8334,-6.852,-6.8481,-6.8466,-6.8562,-6.8394,-6.8489,-6.8342,-6.8422,-6.834,-6.8508,-6.8522,-6.8491,-6.8469,-6.8509,-6.8514,-6.8537,-6.851,-6.8407,-6.8404,-6.8401,-6.8399,0,-6.7718,-6.7828,-6.7998,-6.8007,-6.7957,-6.8041,-6.8024,-6.8005,-6.8045,-6.8078,-6.8102,-6.8152,-6.8181,-6.8223,-6.8119,-6.7975,-6.8321,-6.8102,-6.829,-6.8293,-6.8377,-6.8374,-6.8975,-6.8394,-6.8394,-6.8392,-6.8391,0,-6.7294,-6.7327,-6.7589,-6.7542,-6.7577,-6.769,-6.7728,-6.78,-6.7793,-6.7748,-6.7774,-6.7652,-6.7788,-6.7579,-6.7765,-6.7609,-6.7647,-6.7628,-6.764,-6.7651,-6.7422,-6.778,-6.8359,-6.8418,-6.7654,-6.7648,-6.7643,0,-6.6794,-6.703,-6.6909,-6.7162,-6.7257,-6.7061,-6.7184,-6.7182,-6.7132,-6.7206,-6.7149,-6.7237,-6.7059,-6.7072,-6.7177,-6.7125,-6.7328,-6.7094,-6.7209,-6.7215,-6.7221,-6.775,-6.7865,-6.8242,-6.7562,-6.7571,-6.7577,0,-6.6395,-6.633,-6.6384,-6.6388,-6.6362,-6.6441,-6.6582,-6.6635,-6.6691,-6.6707,-6.6824,-6.6942,-6.6813,-6.6838,-6.6744,-6.686,-6.7187,-6.6707,-6.6705,-6.6801,-6.7512,-6.762,-6.7684,-6.7099,-6.7108,-6.7116,-6.7513,0,-6.5782,-6.5887,-6.6025,-6.6043,-6.6086,-6.6238,-6.6126,-6.6187,-6.6091,-6.6035,-6.6203,-6.6176,-6.6235,-6.6278,-6.6187,-6.6482,-6.6418,-6.6281,-6.6075,-6.6421,-6.655,-6.6602,-6.5891,-6.5884,-6.5879,-6.5874,0,0,-6.5333,-6.5479,-6.5344,-6.5474,-6.5503,-6.53,-6.5472,-6.5477,-6.5494,-6.5519,-6.5401,-6.5567,-6.5553,-6.577,-6.5869,-6.5892,-6.5936,-6.5819,-6.6256,-6.6299,-6.6339,-6.6478,-6.6534,-6.5864,-6.5862,-6.586,-6.5858,0,-6.5086,-6.507,-6.524,-6.5238,-6.523,-6.5161,-6.5202,-6.516,-6.5132,-6.5294,-6.5128,-6.5215,-6.5352,-6.5359,-6.5381,-6.5788,-6.5661,-6.5813,-6.607,-6.6202,-6.6253,-6.6297,-6.6446,-6.65,-6.5844,-6.5845,-6.5846,0,-6.4676,-6.4643,-6.4713,-6.4767,-6.4761,-6.4864,-6.4618,-6.4737,-6.4813,-6.4589,-6.4755,-6.4727,-6.4726,-6.4944,-6.5038,-6.4935,-6.5417,-6.5245,-6.5277,-6.5287,-6.541,-6.5471,-6.5525,-6.4812,-6.4808,-6.4805,0,0,-6.448,-6.4575,-6.4499,-6.4706,-6.4713,-6.4613,-6.4657,-6.4566,-6.4568,-6.457,-6.4532,-6.4541,-6.4618,-6.4673,-6.474,-6.4995,-6.4986,-6.5122,-6.517,-6.5211,-6.5243,-6.5376,-6.5437,-6.4794,-6.4793,-6.4793,0,0,-6.4387,-6.4305,-6.4208,-6.4433,-6.444,-6.438,-6.4513,-6.4392,-6.4441,-6.4412,-6.4267,-6.4264,-6.4465,-6.4445,-6.4298,-6.4666,-6.4463,-6.4496,-6.4672,-6.4732,-6.478,-6.4783,-6.4046,0,0,0,0,0,-6.4079,-6.4314,-6.4226,-6.4248,-6.4318,-6.4428,-6.4437,-6.4321,-6.4179,-6.4286,-6.4234,-6.4093,-6.4336,-6.4202,-6.4227,-6.4394,-6.464,-6.4667,-6.4693,-6.498,-6.5044,-6.5098,0,0,0,0,0,0,-6.4086,-6.4113,-6.422,-6.4172,-6.4187,-6.4419,-6.4153,-6.4128,-6.4164,-6.4135,-6.4107,-6.4092,-6.3997,-6.4181,-6.4205,-6.4367,-6.4038,-6.4651,-6.4674,-6.4695,-6.5002,-6.5054,-6.5099,0,0,0,0,0,-6.4092,-6.4112,-6.4255,-6.4168,-6.4181,-6.4083,-6.4143,-6.412,-6.4147,-6.4068,-6.4048,-6.4056,-6.4005,-6.4017,-6.4195,-6.4359,-6.402,-6.403,-6.4666,-6.4684,-6.47,-6.5027,0,0,0,0,0,0,-6.4095,-6.4093,-6.4254,-6.4254,-6.407,-6.4067,-6.4062,-6.4114,-6.4074,-6.4058,-6.4008,-6.3986,-6.4013,-6.4021,-6.4032,-6.4363,-6.4006,-6.4016,-6.4022,-6.468,-6.4694,-6.4707,0,0,0,0,0,0,-6.4081,-6.4094,-6.4254,-6.4138,-6.4122,-6.4054,-6.405,-6.4184,-6.4077,-6.4017,-6.3996,-6.3999,-6.3998,-6.4026,-6.4033,-6.4247,-6.3995,-6.4004,-6.4011,-6.4015,-6.4691,-6.4702,0,0,0,0,0,0,-6.4084,-6.4096,-6.4137,-6.4126,-6.4112,-6.4099,-6.417,-6.425,-6.3974,-6.4022,-6.3946,-6.3934,-6.4007,-6.4012,-6.4035,-6.4247,-6.4247,-6.3995,-6.4002,-6.4006,-6.4009,0,0,0,0,0,0,0,-6.4087,-6.4038,-6.4257,-6.4116,-6.4103,-6.425,-6.425,-6.425,-6.3972,-6.396,-6.3949,-6.3939,-6.3943,-6.3953,-6.3963,-6.4247,0,0,-6.3994,-6.3999,0,0,0,0,0,0,0,0,-6.403,-6.4036,-6.4257,-6.4257,-6.4257,-6.425,-6.425,-6.425,-6.397,-6.3961,-6.3952,-6.3943,-6.3945,-6.3954,-6.3962,0,0,0,0,0,0,0,0,0,0,0,0,0,0,0,-6.4257,-6.4257,0,-6.425,-6.425,-6.425,-6.3968,-6.3961,-6.3954,-6.3947,-6.3948,-6.3954,-6.3961,0,0,0,0,0,0,0,0,0,0,0,0,0,0,0,0,0,0,0,0,0,0,0,0,0,0,0,0,0,0,0,0,0,0,0,0,0,0,0,0,0,0,0,0,0,0,0,0,0,0,0,0,0,0,0,0,0,0,0,0,0,0,0,0,0,0,0,0,0]}],[{"header":{"parameterUnit":"kt","parameterCategory":2,"dx":1,"dy":1,"la1":30.253999710083008,"la2":30.299108505249023,"lo1":-89.0895004272461,"lo2":-89.04439544677734,"nx":28,"ny":28,"refTime":"2022-09-28T21:00:00:Z","depth":0,"parameterNumber":2,"parameterNumberName":"V-component_of_WINDS"},"data":[-17.3777,-17.4065,-17.4038,-17.435,-17.4377,-17.4584,-17.4647,-17.4725,-17.4779,-17.5017,-17.5146,-17.5142,-17.5178,-17.5321,-17.5455,-17.5448,-17.5507,-17.5631,-17.5601,-17.5082,-17.5007,-17.4936,-17.4868,-17.5645,-17.5646,-17.6143,-17.6148,-17.6152,-17.3397,-17.3429,-17.3588,-17.3721,-17.3855,-17.3719,-17.3811,-17.393,-17.4116,-17.4184,-17.431,-17.4515,-17.467,-17.4662,-17.4804,-17.4931,-17.4872,-17.4971,-17.4961,-17.4968,-17.4411,-17.434,-17.5017,-17.5017,-17.5017,-17.5016,-17.5016,-17.5016,-17.2699,-17.2873,-17.2938,-17.3108,-17.3166,-17.3254,-17.3412,-17.3405,-17.3554,-17.3704,-17.3635,-17.3843,-17.39,-17.4053,-17.4095,-17.4251,-17.4134,-17.4231,-17.4255,-17.428,-17.4314,-17.3599,-17.4273,-17.4271,-17.4269,-17.4267,-17.4266,0,-17.2177,-17.2143,-17.2292,-17.2434,-17.2556,-17.2661,-17.275,-17.2847,-17.2753,-17.288,-17.306,-17.3157,-17.3346,-17.3508,-17.3631,-17.3653,-17.3519,-17.3501,-17.3568,-17.3605,-17.3623,-17.3616,-17.271,-17.3482,-17.3475,-17.347,-17.3466,-17.3463,-17.1469,-17.1676,-17.1728,-17.1837,-17.1879,-17.2055,-17.2152,-17.2055,-17.2161,-17.2253,-17.2408,-17.2569,-17.2694,-17.2981,-17.2961,-17.31,-17.3035,-17.3334,-17.3055,-17.3083,-17.3039,-17.3028,-17.3046,-17.339,-17.3399,-17.3407,-17.3413,0,-17.1073,-17.1024,-17.1333,-17.1362,-17.1375,-17.1595,-17.1616,-17.1782,-17.1754,-17.1978,-17.2023,-17.1978,-17.2153,-17.2084,-17.2268,-17.2226,-17.2578,-17.2512,-17.2558,-17.254,-17.28,-17.2777,-17.3657,-17.3766,-17.296,-17.2968,-17.2974,0,-17.0449,-17.0723,-17.0632,-17.0815,-17.1114,-17.1009,-17.1306,-17.1311,-17.136,-17.1535,-17.1373,-17.154,-17.1426,-17.1581,-17.152,-17.1795,-17.1829,-17.1812,-17.1793,-17.1828,-17.183,-17.1879,-17.1841,-17.1741,-17.1737,-17.1733,-17.1729,0,-16.9833,-17.0105,-17.0401,-17.0454,-17.051,-17.065,-17.0679,-17.0732,-17.0827,-17.0938,-17.0997,-17.1133,-17.1208,-17.1313,-17.1234,-17.1047,-17.1568,-17.1294,-17.155,-17.1553,-17.1669,-17.1663,-17.246,-17.1724,-17.1722,-17.1721,-17.1719,0,-16.932,-16.9442,-16.9878,-16.992,-16.9995,-17.0188,-17.0317,-17.0467,-17.0534,-17.0509,-17.0594,-17.0477,-17.0713,-17.0446,-17.0768,-17.0547,-17.0628,-17.0634,-17.0651,-17.0667,-17.0371,-17.0829,-17.1596,-17.1673,-17.0682,-17.0674,-17.0666,0,-16.8628,-16.9056,-16.8969,-16.9385,-16.9572,-16.9379,-16.959,-16.9655,-16.9639,-16.9791,-16.9769,-16.9943,-16.9731,-16.9774,-16.9943,-16.9927,-17.0214,-16.9886,-17.01,-17.0109,-17.009,-17.0795,-17.0926,-17.1436,-17.0554,-17.0566,-17.0574,0,-16.8086,-16.8155,-16.8236,-16.8291,-16.8365,-16.8519,-16.8763,-16.8913,-16.902,-16.911,-16.9309,-16.955,-16.9399,-16.9474,-16.9392,-16.9571,-17.0016,-16.9383,-16.9382,-16.9499,-17.0492,-17.0616,-17.0702,-16.9921,-16.9934,-16.9945,-17.0486,0,-16.7321,-16.7528,-16.7743,-16.7873,-16.7982,-16.8238,-16.8169,-16.8291,-16.8203,-16.818,-16.847,-16.8504,-16.8653,-16.8732,-16.8646,-16.9079,-16.8995,-16.8831,-16.8566,-16.9029,-16.9206,-16.9278,-16.8309,-16.83,-16.8294,-16.8288,0,0,-16.667,-16.6966,-16.6863,-16.7098,-16.7183,-16.6978,-16.7258,-16.7316,-16.7439,-16.7501,-16.7352,-16.7699,-16.7733,-16.8092,-16.8231,-16.8292,-16.8361,-16.8202,-16.8809,-16.8868,-16.8922,-16.9112,-16.9188,-16.8276,-16.8273,-16.827,-16.8268,0,-16.6377,-16.6424,-16.6704,-16.6761,-16.6842,-16.6804,-16.6872,-16.6914,-16.6911,-16.7197,-16.702,-16.7185,-16.7466,-16.7523,-16.759,-16.8158,-16.8013,-16.8208,-16.8538,-16.8742,-16.881,-16.8869,-16.907,-16.9144,-16.8251,-16.8252,-16.8253,0,-16.5829,-16.5863,-16.5992,-16.618,-16.623,-16.6426,-16.6132,-16.6353,-16.6496,-16.6255,-16.6541,-16.655,-16.6621,-16.6971,-16.7125,-16.6994,-16.77,-16.7464,-16.7506,-16.7521,-16.7714,-16.7796,-16.7868,-16.6911,-16.6907,-16.6903,0,0,-16.5584,-16.5777,-16.578,-16.6111,-16.6155,-16.6104,-16.6201,-16.6122,-16.6194,-16.6224,-16.6231,-16.6304,-16.6464,-16.6572,-16.6719,-16.7115,-16.7119,-16.7302,-16.7365,-16.7417,-16.7461,-16.7668,-16.7749,-16.6886,-16.6886,-16.6885,0,0,-16.5465,-16.5485,-16.5384,-16.576,-16.5837,-16.5859,-16.6062,-16.5937,-16.6063,-16.6025,-16.5899,-16.5913,-16.6238,-16.6253,-16.6042,-16.6623,-16.6362,-16.6411,-16.6602,-16.668,-16.6742,-16.6732,-16.5742,0,0,0,0,0,-16.513,-16.5482,-16.5391,-16.5444,-16.5679,-16.5911,-16.5939,-16.5846,-16.5663,-16.5826,-16.5812,-16.5651,-16.6113,-16.5923,-16.5974,-16.6211,-16.6674,-16.6712,-16.6747,-16.7086,-16.7169,-16.724,0,0,0,0,0,0,-16.515,-16.5216,-16.5381,-16.5421,-16.5472,-16.5897,-16.5567,-16.5551,-16.5643,-16.5609,-16.5659,-16.5652,-16.5574,-16.5889,-16.5938,-16.6164,-16.5725,-16.6689,-16.6721,-16.675,-16.7115,-16.7183,-16.7241,0,0,0,0,0,-16.5166,-16.5218,-16.562,-16.5414,-16.5459,-16.5419,-16.5553,-16.5537,-16.5606,-16.5586,-16.5574,-16.5527,-16.5583,-16.5617,-16.5918,-16.6145,-16.5691,-16.5709,-16.671,-16.6735,-16.6757,-16.7148,0,0,0,0,0,0,-16.5177,-16.5203,-16.5627,-16.5637,-16.5275,-16.5393,-16.5409,-16.5526,-16.5574,-16.5568,-16.5446,-16.5419,-16.5594,-16.5618,-16.5645,-16.6144,-16.5663,-16.5682,-16.5694,-16.6729,-16.6749,-16.6766,0,0,0,0,0,0,-16.5174,-16.5213,-16.5632,-16.5462,-16.5451,-16.537,-16.5384,-16.5625,-16.5578,-16.5431,-16.541,-16.5434,-16.5551,-16.5621,-16.5641,-16.602,-16.5642,-16.566,-16.5672,-16.568,-16.6745,-16.676,0,0,0,0,0,0,-16.5189,-16.5222,-16.5458,-16.545,-16.544,-16.5544,-16.558,-16.5824,-16.5437,-16.5432,-16.5399,-16.5382,-16.5559,-16.5577,-16.5639,-16.6012,-16.6018,-16.5643,-16.5655,-16.5663,-16.5669,0,0,0,0,0,0,0,-16.52,-16.5,-16.5569,-16.5441,-16.5431,-16.5729,-16.5732,-16.5734,-16.5433,-16.5418,-16.5403,-16.5389,-16.554,-16.556,-16.558,-16.6005,0,0,-16.5641,-16.565,0,0,0,0,0,0,0,0,-16.4984,-16.4996,-16.5569,-16.5571,-16.5573,-16.5729,-16.5731,-16.5734,-16.5431,-16.5418,-16.5406,-16.5395,-16.5546,-16.5561,-16.5577,0,0,0,0,0,0,0,0,0,0,0,0,0,0,0,-16.5569,-16.5571,0,-16.573,-16.5731,-16.5733,-16.5429,-16.5419,-16.5409,-16.5399,-16.555,-16.5563,-16.5576,0,0,0,0,0,0,0,0,0,0,0,0,0,0,0,0,0,0,0,0,0,0,0,0,0,0,0,0,0,0,0,0,0,0,0,0,0,0,0,0,0,0,0,0,0,0,0,0,0,0,0,0,0,0,0,0,0,0,0,0,0,0,0,0,0,0,0,0,0]}]]]